Location: Hopewell Observatory
(38.8698°N, 77.6988°W)
Time: 11:12:15
(UTC-04:00)

Daily predictions for brighter satellites

Satellite Brightness Start Highest point End
(mag) Time Altitude Azimuth Time Altitude Azimuth Time Altitude Azimuth
Cosmos 2333 Rocket 4.1 21:04:37 10° N 21:08:17 17° NE 21:11:56 10° E
H-2A R/B 3.7 21:12:00 10° S 21:15:43 48° W 21:19:23 10° NNW
Cosmos 2219 Rocket 3.6 21:11:54 10° N 21:16:21 24° NE 21:20:48 10° ESE
Hubble Space Telescope 2.7 21:15:08 10° SSW 21:17:11 13° SSE 21:19:12 10° SE
YAOGAN 11 4.2 21:14:32 10° S 21:18:51 80° WSW 21:23:16 10° NNW
OTV 4 1.3 21:17:16 10° SW 21:19:55 29° SSE 21:22:35 10° E
COSMOS 2428 3.1 21:15:16 10° NNW 21:20:47 50° ENE 21:26:17 10° SE
Cosmos 1726 3.7 21:18:46 10° NNE 21:21:41 21° ENE 21:24:31 10° SE
DELTA 2 R/B (1) 4.2 21:19:31 10° W 21:24:47 44° SSW 21:29:53 11° SE
Cosmos 1680 Rocket 3.6 21:22:46 10° NNW 21:28:02 83° WSW 21:33:18 10° SSE
Cosmos 1437 Rocket 3.9 21:25:33 10° NNW 21:29:12 44° W 21:32:54 10° SSW
Cosmos 2058 3.1 21:26:13 10° SSE 21:30:09 49° E 21:34:08 10° NNE
Meteor 1-4 Rocket 4.3 21:27:40 10° NNE 21:30:20 19° ENE 21:32:34 12° ESE
Cosmos 2151 2.9 21:26:46 10° S 21:30:57 89° ESE 21:35:11 10° N
NOSS 3-1 (A) 3.3 21:30:49 10° SSW 21:36:35 70° ESE 21:42:58 10° NE
Cosmos 405 4.0 21:33:32 10° NNW 21:37:02 47° W 21:40:30 10° S
Cosmos 1898 Rocket 3.6 21:33:03 10° S 21:38:04 54° ESE 21:43:09 10° NNE
H-2A R/B 4.1 21:35:46 10° E 21:38:28 14° ENE 21:41:11 10° NNE
Cosmos 2237 4.2 21:36:34 10° NNW 21:42:19 80° ENE 21:47:32 13° SSE
Delta 2 Rocket 3.4 21:38:53 10° W 21:42:32 45° S 21:44:58 17° ESE
Cosmos 1437 3.9 21:40:29 10° SSW 21:43:39 45° WNW 21:46:50 10° N
Nadezhda 2 Rocket 4.4 21:37:35 10° S 21:43:43 83° E 21:49:50 10° N
ALOS 4.4 21:40:32 10° SSW 21:44:22 25° W 21:48:12 10° NW
Aureole 3 4.3 21:39:43 10° S 21:46:11 85° W 21:51:16 10° N
MetOp-B 4.4 21:42:05 13° SE 21:46:43 52° ENE 21:51:55 10° N
Cosmos 1939 Rocket 2.9 21:43:02 10° S 21:46:57 74° W 21:50:50 10° NNW
Cosmos 2219 3.8 21:42:42 10° SSW 21:48:23 63° WNW 21:54:07 10° NNE
Tiangong 1 1.9 21:45:56 10° W 21:48:59 51° NNW 21:52:01 10° ENE
Nimbus 7 Rocket 4.4 21:44:11 10° NNE 21:50:04 87° ESE 21:55:57 10° SSW
SPOT 1/Viking Rocket 4.2 21:46:52 15° SE 21:50:39 39° ENE 21:55:25 10° N
Cosmos 2237 Rocket 3.3 21:47:34 10° N 21:52:35 31° ENE 21:56:27 15° ESE
Cosmos 2150 Rocket 4.0 21:48:46 10° SSW 21:54:12 79° ESE 21:59:41 10° NNE
OAO 2 Rocket 3.6 21:49:06 10° WSW 21:54:16 53° S 21:59:04 12° E
Cosmos 2333 4.2 21:52:10 10° NNW 21:57:56 80° ENE 22:02:25 17° SSE
CZ-4 SHROUD 3.1 21:55:57 20° SSE 21:57:58 74° ENE 22:01:05 10° N
Cosmos 2082 4.2 21:52:45 10° S 21:57:59 38° ESE 22:03:15 10° NE
ATLAS 2AS CENTAUR R/B 3.3 21:51:56 10° S 21:58:46 43° ESE 22:06:08 10° NE
Sich 1 3.0 21:54:35 10° S 21:58:57 65° E 22:03:18 10° NNE
Cosmos 2360 Rocket 3.6 21:56:21 10° NW 22:01:25 35° WSW 22:06:28 10° SSW
Cosmos 1626 3.6 22:02:07 19° ESE 22:02:50 20° E 22:05:38 10° NE
Cosmos 1271 Rocket 3.2 21:59:49 10° N 22:03:33 45° ENE 22:05:31 24° SE
ERS-1 Rocket 4.3 22:01:25 10° SSW 22:06:01 36° W 22:10:41 10° NNW
Cosmos 1633 Rocket 3.0 22:02:35 11° S 22:06:45 75° E 22:11:07 10° N
YAOGAN 6 2.6 22:04:58 24° SSE 22:06:59 62° ENE 22:10:32 10° N
Iridium 2 4.5 22:05:33 24° SE 22:07:06 34° E 22:10:37 10° NNE
ATLAS 3B R/B 4.0 22:02:13 10° NNW 22:08:17 30° NE 22:13:27 12° E
ERBS 2.4 22:04:56 10° SW 22:08:26 83° NW 22:11:57 10° NE
Envisat 3.6 22:08:26 10° S 22:13:22 53° W 22:18:21 10° NNW
Cosmos 2242 Rocket 3.6 22:09:59 10° N 22:14:28 68° E 22:17:06 24° SSE
CZ-4 R/B 4.1 22:11:13 10° NNE 22:15:59 50° E 22:18:51 22° SSE
Cosmos 1703 3.2 22:14:44 23° S 22:17:03 66° E 22:20:57 10° NNE
CZ-4C R/B 4.3 22:16:15 23° E 22:17:05 25° ENE 22:20:00 10° NNE
SL-14 R/B 3.8 22:14:44 10° SSW 22:18:38 60° W 22:22:38 10° N
USA 245 1.9 22:21:01 64° E 22:21:02 64° ENE 22:23:16 10° N
PSLV R/B 4.4 22:23:16 20° SSW 22:24:57 37° W 22:27:49 10° NNW
Cosmos 220 Rocket 4.4 22:24:09 10° SSW 22:28:30 66° WNW 22:32:56 10° NNE
USA 32 4.0 22:24:03 10° N 22:29:21 83° E 22:32:30 25° S
Cosmos 2227 Rocket 2.1 22:24:06 10° SSW 22:29:44 76° ESE 22:35:25 10° NNE
Cosmos 1937 Rocket 3.8 22:26:55 10° SSW 22:32:07 67° WNW 22:37:18 10° NNE
Cosmos 1300 4.2 22:29:29 10° NNW 22:32:58 33° W 22:35:46 14° SSW
Cosmos 990 Rocket 4.0 22:32:50 10° SSW 22:37:58 84° WNW 22:43:09 10° NNE
H-2A R/B 4.4 22:37:44 10° SW 22:41:01 20° W 22:44:18 10° NW
DELTA 2 DEB (DPAF) 4.2 22:41:00 39° SE 22:42:32 64° ENE 22:46:59 10° N
Cosmos 292 Rocket 4.3 22:39:01 10° NNW 22:43:38 52° WSW 22:46:00 27° SSW
SPOT 5 4.3 22:40:03 13° SSW 22:43:39 32° W 22:48:00 10° NNW
ARGOS 3.2 22:44:45 28° S 22:47:40 74° WSW 22:53:04 10° NNW
SL-16 R/B 3.0 22:43:07 10° N 22:48:25 38° ENE 22:50:40 27° ESE
CZ-4B R/B 4.2 22:44:11 10° N 22:49:18 55° WNW 22:54:18 10° SSW
H-2A R/B 4.3 22:44:35 10° SW 22:49:28 42° SSE 23:17:29 10° E
H-2A R/B 4.3 22:44:35 10° SW 22:49:28 42° SSE 23:17:30 10° E
Cosmos 2333 Rocket 2.3 22:47:26 10° NNW 22:53:11 76° WSW 22:55:43 35° S
Cosmos 1455 2.1 22:51:22 10° N 22:55:12 90° ESE 22:55:49 62° S
OTV 4 1.9 22:53:07 10° W 22:54:46 29° WSW 22:54:46 29° WSW
Cosmos 2297 Rocket 2.1 22:51:53 18° SSW 22:56:12 87° ESE 23:01:53 10° NNE
Cosmos 1726 4.3 22:54:01 10° NW 22:56:58 22° W 22:59:13 13° SW
Hubble Space Telescope 3.2 22:54:46 10° SW 22:54:58 11° SW 22:54:58 11° SW
Cosmos 1346 4.0 22:57:45 41° WSW 22:58:09 44° WNW 23:01:05 10° N
Landsat 7 3.7 22:57:59 44° SSE 22:59:30 89° WSW 23:04:18 10° NNW
Cosmos 2219 Rocket 2.8 22:55:11 10° NW 23:00:33 48° WSW 23:03:07 28° SSW
NOSS 2-3 (C) 4.1 23:00:19 45° SE 23:00:47 47° ESE 23:05:59 10° NE
Cosmos 1470 Rocket 4.1 22:59:12 25° SSW 23:01:26 53° W 23:05:41 10° N
Cosmos 1933 Rocket 4.1 23:00:00 26° SSW 23:02:20 56° W 23:06:44 10° N
Cosmos 44 Rocket 3.6 23:04:46 47° SE 23:05:10 48° ESE 23:10:12 10° NE
SL-08 RB Rocket 4.3 23:05:02 34° SSW 23:06:35 50° W 23:10:58 10° NNW
NOSS 0 Rocket 4.4 23:00:53 10° NW 23:06:50 52° WSW 23:09:35 31° SSW
Cosmos 1703 Rocket 4.0 23:03:51 10° N 23:08:02 43° E 23:08:18 43° E
Lacrosse 4 Rocket 1.9 23:03:52 10° NNW 23:08:13 51° ENE 23:08:55 46° E
Nadezhda 1 Rocket 4.2 23:03:10 10° NNW 23:09:13 67° W 23:12:17 30° SSW
Cosmos 1269 Rocket 4.1 23:05:55 10° NNW 23:11:13 68° ENE 23:12:32 49° SE
Cosmos 1933 3.6 23:09:42 10° N 23:13:42 55° E 23:13:42 55° E
Terra 1.7 23:14:22 56° SSE 23:15:22 89° WSW 23:20:10 10° NNW
H-2A R/B 2.1 23:15:25 45° S 23:17:07 78° WSW 23:22:36 10° NNW
COSMOS 2455 2.8 23:13:59 10° NNW 23:20:03 79° ENE 23:21:50 48° SE
NOSS 2-3 (D) 3.8 23:21:10 58° S 23:22:00 70° ESE 23:27:27 10° NE
Cosmos 1980 4.5 23:19:42 10° NW 23:24:59 42° WSW 23:26:49 32° SSW
Tiangong 1 2.6 23:22:55 10° WNW 23:25:23 36° NNW 23:25:23 36° NNW
Cosmos 1125 Rocket 3.6 23:23:43 35° SSW 23:25:59 74° WNW 23:31:19 10° NNE
Cosmos 1048 Rocket 4.0 23:22:01 10° NNW 23:27:25 76° ENE 23:28:25 58° SE
Cosmos 1709 Rocket 3.9 23:27:42 40° SSW 23:30:05 82° W 23:36:13 10° N
Spot 4 3.8 23:29:25 64° S 23:30:09 82° WSW 23:35:03 10° NNW
Cosmos 2221 Rocket 3.5 23:26:48 10° N 23:31:23 77° E 23:31:33 76° ESE
Cosmos 2237 Rocket 3.2 23:31:28 10° NW 23:36:39 37° WSW 23:38:17 31° SW
Cosmos 372 Rocket 3.9 23:36:14 65° S 23:36:59 81° ESE 23:42:15 10° NNE
Cosmos 1626 4.3 23:36:48 18° WSW 23:38:07 22° WNW 23:41:05 10° NNW
Cosmos 1900 4.3 23:33:22 10° NW 23:38:17 64° WSW 23:38:38 62° SW
OAO 2 Rocket 3.8 23:33:41 10° W 23:38:02 47° SW 23:38:02 47° SW
Cosmos 389 Rocket 3.7 23:35:42 10° N 23:38:11 38° NNE 23:38:11 38° NNE
CARTOSAT-1 4.4 23:42:07 38° WSW 23:42:29 39° W 23:46:33 10° NNW
Meteor 1-26 Rocket 4.1 23:39:53 10° N 23:45:33 76° E 23:46:26 63° SE
ATLAS 2AS CENTAUR R/B 4.0 23:42:33 10° WSW 23:49:45 46° NW 23:57:27 10° NNE
H-2A R/B 4.4 23:49:43 10° NE 23:51:49 21° ENE 23:51:49 21° ENE
Cosmos 44 3.7 23:55:06 54° E 23:55:06 54° E 23:59:52 10° NE
